KCVG Airport Diagram

We have created a template for each of the higher traffic airports in the vZID airspace. They include KCMH, KCRW, KCVG, KDAY, KIND, KLEX and KSDF. You wil find usefull information including the airport diagram, weather, and specific airport procedures.

KCVG Weather

[Source: ADDS]
METAR
KCVG 300152Z 09009KT 10SM FEW100 11/07 A3006 RMK AO2 SLP179 T01110067 =
TAF
KCVG 292339Z 3000/3106 09010KT P6SM SCT250 FM300900 10008KT P6SM BKN040 BKN250 FM301400 16012KT P6SM SCT040 BKN250 FM301700 18014G24KT P6SM SCT050 BKN250 FM310000 18010KT P6SM VCSH BKN060 OVC150 FM310200 18008KT 5SM -SHRA BR VCTS SCT008 OVC020CB TEMPO 3104/3106 2SM -TSRA BKN008 OVC015CB =

KCVG Operations

Calm Wind Configuration is Landing runways 36C and 36R, departing runway 27.

You can expect  this configuration up to and including a 10 knot tailwind.

The Center runway is the old 18R/36L in the default scenery. Additionally, runway 9/27 was lengthened to 12,000 feet when the west runway (18R/36L) was added.

New Scenery is available at FlightSim.com.

On initial contact, arriving aircraft should notify the the controller which scenery they have.

 

JSN Epic template designed by JoomlaShine.com